Regional Weather Roundup
Issued by NWS Burlington, VT

Home | Current Version | Previous Version | Text Only | Print | Product List | Glossary On
Versions: 1 2 3 4 5 6 7 8 9 10 11 12 13 14 15 16 17 18 19 20 21 22 23 24 25 26 27 28 29 30 31 32 33 34 35 36 37 38 39 40 41 42 43 44 45 46 47 48 49 50
000
ASUS41 KBTV 281930
RWRBTV
VERMONT REGIONAL WEATHER ROUNDUP
NATIONAL WEATHER SERVICE BURLINGTON VT
300 PM EDT SAT MAR 28 2015

NOTE: "FAIR" INDICATES FEW OR NO CLOUDS BELOW 12,000 FEET WITH NO
SIGNIFICANT WEATHER AND/OR OBSTRUCTIONS TO VISIBILITY.

* THESE REPORTS ARE NOT UNDER NWS QUALITY CONTROL AND/OR DO NOT
  REPORT WEATHER SUCH AS PRECIPITATION AND FOG.

VTZ001>019-282000-
_____VERMONT_____


CITY           SKY/WX    TMP DP  RH WIND       PRES   REMARKS
BURLINGTON     MOCLDY    28  10  46 NW16G26   29.98S WCI  16
MONTPELIER     CLOUDY    28  14  55 N12       29.88F WCI  18
MORRISVILLE    PTCLDY    27  11  51 NW15G24   29.91F WCI  15
ST. JOHNSBURY*   N/A     33  15  47 MISG      29.83F
LYNDONVILLE*     N/A     30  14  51 W12G20    29.85S
MIDDLEBURY*    CLOUDY    27  15  59 N13G24    29.92S WCI  17
RUTLAND*       CLOUDY    27  18  69 NW12G17   29.87R WCI  16
SPRINGFIELD    CLOUDY    33  18  53 N9G17     29.82F
HIGHGATE*        N/A     25   7  45 N7        30.00S
NEWPORT*         N/A     26  13  59 N15       29.89S WCI  13
BENNINGTON     CLOUDY    28  16  60 N16       29.85S WCI  16
SUTTON*          N/A     27 N/A N/A MISG        N/A
MT. MANSFIELD*   N/A     14 N/A N/A CALM        N/A

_____LAKE CHAMPLAIN_____


CITY           SKY/WX    TMP DP  RH WIND       PRES   REMARKS
BURTON ISLAND*   N/A     27  12  54 N10         N/A  WCI  17
COLCHESTER RF*   N/A     27  10  50 N18         N/A  WCI  13
DIAMOND ISL*     N/A     25  14  63 N23         N/A  WCI  10

$$

NYZ007-026>031-035-052-083-282000-
_____NORTHERN NEW YORK_____


CITY           SKY/WX    TMP DP  RH WIND       PRES   REMARKS
PLATTSBURGH    PTCLDY    27  10  49 N20       29.99S WCI  13
SARANAC LAKE   CLOUDY    18   9  68 VRB7      29.89S
MASSENA        CLEAR     25   1  35 NW9       30.06F
OGDENSBURG*    CLEAR     28   3  34 N9        30.05F
POTSDAM*       CLEAR     25   9  50 NW8       30.03F
WATERTOWN      CLEAR     26   5  40 N12G23    30.07F WCI  16
FT DRUM        CLEAR     21   1  40 N6G18     30.03S
ALBANY         FLURRIES  29  21  72 NW12      29.92S WCI  19
GLENS FALLS    CLOUDY    32  16  51 NE12      29.90F

$$
NHZ002-005-011-282000-
_____NEW HAMPSHIRE_____


CITY           SKY/WX    TMP DP  RH WIND       PRES   REMARKS
LEBANON        CLOUDY    34  20  56 N16       29.82F
KEENE          CLOUDY    32  23  69 N13       29.80S
MT WASHINGTON  SNOW      10  10 100 NW14        N/A  VSB 0   WCI  -5
PLYMOUTH       CLOUDY    35  24  64 NW5       29.79S
WHITEFIELD     CLOUDY    33  17  51 N9        29.81S

$$

_____REGIONAL QUEBEC LOCATIONS_____


CITY           SKY/WX    TMP DP  RH WIND       PRES   REMARKS
MONTREAL       PTCLDY    27   5  39 S10       30.01F WCI  17
QUEBEC CITY    MOCLDY    28  12  50 S14G20    29.93S WCI  17
SHERBROOKE     CLEAR     27  10  50 NW13G20   29.87F WCI  16

_____REGIONAL ONTARIO LOCATIONS_____


CITY           SKY/WX    TMP DP  RH WIND       PRES   REMARKS
OTTAWA         CLEAR     27   1  33 NW15      30.06S WCI  15

______KEY______
VSB  - VISIBILITY IN MILES
WCI  - WIND CHILL INDEX
HX   - HEAT INDEX
$$
NNNN


USA.gov is the U.S. government's official web portal to all federal, state and local government web resources and services.